Chatham, MA

11:14 PM EDT on August 31, 2016 (GMT -0400)
Chatham Municipal

Weather History for KCQX - January, 2013

Change the Weather History Date:

Saturday, January 26, 2013

  Actual Average Record
Temperature  
Mean Temperature 22 °F -  
Max Temperature 26 °F 34 °F 53 °F (1978)
Min Temperature 19 °F 22 °F 8 °F (1982)
Degree Days  
Heating Degree Days 42    
Moisture  
Dew Point 14 °F    
Average Humidity 70    
Maximum Humidity 89    
Minimum Humidity 39    
Precipitation  
Precipitation 0.00 in - - ()
Sea Level Pressure  
Sea Level Pressure 30.02 in    
Wind  
Wind Speed 5 mph (NW)    
Max Wind Speed 14 mph    
Max Gust Speed 30 mph    
Visibility 7 miles    
Events Snow    
Averages and records for this station are not official NWS values.
T = Trace of Precipitation, MM = Missing Value Source: NWS Daily Summary

Daily Weather History Graph

Daily Weather History Graph

Search for Another Location

Airport or City:

Trip Planner

Search our weather history database for the weather conditions in past years. The results will help you decide how hot, cold, wet, or windy it might be!

Date:

Astronomy

Jan. 26, 2013 Rise Set
Actual Time 6:57 AM EST 4:48 PM EST
Civil Twilight 6:27 AM EST 5:18 PM EST
Nautical Twilight 5:53 AM EST 5:51 PM EST
Astronomical Twilight 5:21 AM EST 6:24 PM EST
Moon 4:40 PM EST (1/26) 6:12 AM EST (1/26)
Length of Visible Light 10h 50m
Length of Day
9h 50m
Full, 100% of the Moon is Illuminated
Jan 26
Full
Jan 26
Full
Feb 3
Last Quarter
Feb 10
New
Feb 17
First Quarter

Hourly Weather History & Observations

Time (EST) Temp. Windchill Dew Point Humidity Pressure Visibility Wind Dir Wind Speed Gust Speed Precip Events Conditions
1:05 AM 21.2 °F - 15.8 °F 80% 30.01 in 2.5 mi Calm Calm - 0.00 in Snow Light Snow
1:12 AM 21.2 °F 16.4 °F 15.8 °F 80% 30.01 in 4.0 mi NNW 3.5 mph - 0.00 in Snow Light Snow
1:52 AM 21.9 °F 17.2 °F 18.0 °F 85% 30.01 in 4.0 mi Variable 3.5 mph - 0.00 in Snow Light Snow
2:52 AM 21.9 °F 15.7 °F 19.0 °F 89% 29.99 in 6.0 mi NNW 4.6 mph - 0.00 in Snow Light Snow
3:06 AM 23.0 °F - 19.4 °F 86% 29.97 in 10.0 mi Calm Calm - 0.00 in   Overcast
3:13 AM 23.0 °F 18.4 °F 19.4 °F 86% 29.97 in 9.0 mi Variable 3.5 mph - 0.00 in Snow Light Snow
3:52 AM 23.0 °F - 19.0 °F 85% 29.98 in 6.0 mi Calm Calm - 0.00 in Snow Light Snow
4:16 AM 23.0 °F - 19.4 °F 86% 29.96 in 2.5 mi Calm Calm - 0.00 in Snow Light Snow
4:25 AM 23.0 °F - 19.4 °F 86% 29.96 in 1.8 mi Calm Calm - 0.00 in Snow Light Snow
4:52 AM 23.0 °F 17.0 °F 19.9 °F 88% 29.97 in 2.0 mi NNW 4.6 mph - 0.00 in Snow Light Snow
5:02 AM 23.0 °F 18.4 °F 19.4 °F 86% 29.96 in 3.0 mi Variable 3.5 mph - 0.00 in Snow Light Snow
5:52 AM 21.9 °F 17.2 °F 19.0 °F 89% 29.98 in 3.0 mi Variable 3.5 mph - 0.00 in Snow Light Snow
6:31 AM 21.2 °F 14.9 °F 17.6 °F 86% 29.97 in 5.0 mi NW 4.6 mph - 0.00 in Snow Light Snow
6:52 AM 21.0 °F 14.6 °F 16.0 °F 81% 29.98 in 9.0 mi NW 4.6 mph - 0.00 in   Overcast
7:52 AM 24.1 °F 16.0 °F 17.1 °F 75% 29.99 in 10.0 mi NW 6.9 mph - 0.00 in   Overcast
8:52 AM 25.0 °F 17.1 °F 16.0 °F 69% 29.99 in 10.0 mi Variable 6.9 mph 16.1 mph N/A   Overcast
9:16 AM 26.6 °F 18.2 °F 17.6 °F 69% 29.99 in 10.0 mi NW 8.1 mph - N/A   Overcast
9:33 AM 24.8 °F 16.1 °F 15.8 °F 69% 29.99 in 6.0 mi NW 8.1 mph 19.6 mph 0.00 in Snow Light Snow
9:52 AM 25.0 °F 19.3 °F 19.9 °F 81% 30.00 in 2.0 mi Variable 4.6 mph 16.1 mph 0.00 in Snow Light Snow
10:04 AM 24.8 °F 14.0 °F 19.4 °F 80% 29.99 in 5.0 mi NW 11.5 mph 19.6 mph 0.00 in Snow Light Snow
10:52 AM 26.1 °F 17.6 °F 19.9 °F 78% 30.00 in 5.0 mi NNW 8.1 mph 19.6 mph 0.00 in Snow Light Snow
11:04 AM 26.6 °F 17.5 °F 17.6 °F 69% 29.99 in 6.0 mi NW 9.2 mph - 0.00 in Snow Light Snow
11:23 AM 24.8 °F 12.9 °F 17.6 °F 74% 29.99 in 2.5 mi NW 13.8 mph 26.5 mph 0.00 in Snow Light Snow
11:52 AM 25.0 °F 14.2 °F 19.0 °F 78% 29.99 in 2.0 mi NW 11.5 mph 23.0 mph 0.00 in Snow Light Snow
12:08 PM 26.6 °F 18.2 °F 17.6 °F 69% 29.98 in 4.0 mi NW 8.1 mph 21.9 mph 0.00 in Snow Light Snow
12:52 PM 26.1 °F 14.5 °F 17.1 °F 69% 29.99 in 4.0 mi NW 13.8 mph 23.0 mph 0.00 in Snow Light Snow
1:52 PM 26.1 °F 16.2 °F 16.0 °F 66% 29.99 in 10.0 mi NW 10.4 mph 21.9 mph 0.00 in   Mostly Cloudy
2:08 PM 24.8 °F 13.4 °F 14.0 °F 64% 30.00 in 10.0 mi NW 12.7 mph 20.7 mph N/A   Scattered Clouds
2:18 PM 24.8 °F 16.1 °F 14.0 °F 64% 30.00 in 10.0 mi NW 8.1 mph 17.3 mph N/A   Mostly Cloudy
2:27 PM 24.8 °F 16.9 °F 12.2 °F 59% 30.00 in 10.0 mi Variable 6.9 mph 18.4 mph N/A   Scattered Clouds
2:52 PM 24.1 °F 13.1 °F 12.9 °F 62% 30.01 in 10.0 mi NW 11.5 mph 18.4 mph N/A   Partly Cloudy
3:52 PM 24.1 °F 14.4 °F 9.0 °F 53% 30.04 in 10.0 mi NW 9.2 mph 19.6 mph N/A   Clear
4:52 PM 23.0 °F 15.8 °F 7.0 °F 50% 30.06 in 10.0 mi Variable 5.8 mph - N/A   Clear
5:52 PM 23.0 °F 14.7 °F 1.0 °F 39% 30.08 in 10.0 mi Variable 6.9 mph 17.3 mph N/A   Clear
6:52 PM 23.0 °F 13.9 °F 3.9 °F 44% 30.09 in 10.0 mi NW 8.1 mph - N/A   Clear
7:52 PM 21.9 °F 9.8 °F 1.0 °F 40% 30.11 in 10.0 mi NNW 12.7 mph 27.6 mph N/A   Partly Cloudy
8:52 PM 21.9 °F 12.5 °F 1.0 °F 40% 30.12 in 10.0 mi NW 8.1 mph 27.6 mph N/A   Overcast
9:52 PM 19.9 °F 7.3 °F 1.9 °F 46% 30.14 in 10.0 mi NNW 12.7 mph 24.2 mph N/A   Partly Cloudy
10:52 PM 19.9 °F 7.3 °F 6.1 °F 55% 30.17 in 10.0 mi NW 12.7 mph 28.8 mph N/A   Mostly Cloudy
11:52 PM 19.9 °F 6.7 °F 5.0 °F 52% 30.18 in 10.0 mi NW 13.8 mph 29.9 mph N/A   Partly Cloudy